User: anonymous   Login
Location: Bergnershof
(48.9468°N, 10.9431°E)
Time: 21:47:51
(UTC+00:00)
Language:

Cosmos 1515 - Orbit

View from above orbital plane
View from above orbital plane
View from above satellite
View from above satellite

Ground track
Ground track

The orbit data is extracted from the following two-line orbital elements,

1 14551U 83122A   21134.63332830  .00000679  00000-0  31154-4 0  9991
2 14551  82.5010 200.5560 0007459  25.5231  89.5787 15.18705438786091
Epoch (UTC): 14 May 2021 15:11:59
Eccentricity: 0.0007459
inclination: 82.5010°
perigee height: 504 km
apogee height: 515 km
right ascension of ascending node: 200.5560°
argument of perigee: 25.5231°
revolutions per day: 15.18705438
mean anomaly at epoch: 89.5787°
orbit number at epoch: 78609

The dashed part of the orbit path shows where the satellite is in the earth's shadow,  

DLR